User: anonymous   Login
Location: *
(2.5500°S, 65.9667°W)
Time: 17:31:43
(UTC+00:00)
Language:

A-11 Canister half - Orbit

View from above orbital plane
View from above orbital plane
View from above satellite
View from above satellite

Ground track
Ground track

The orbit data is extracted from the following two-line orbital elements,

1 00051U 60009C   24113.59354818 -.00000042  00000-0  42230-3 0  9996
2 00051  47.2136 320.1711 0108556  20.9723 339.5470 12.18327017835395
Epoch (UTC): 22 April 2024 14:14:42
Eccentricity: 0.0108556
inclination: 47.2136°
perigee height: 1513 km
apogee height: 1686 km
right ascension of ascending node: 320.1711°
argument of perigee: 20.9723°
revolutions per day: 12.18327017
mean anomaly at epoch: 339.5470°
orbit number at epoch: 83539

The dashed part of the orbit path shows where the satellite is in the earth's shadow,  

DLR